[[[{"header":{"parameterUnit":"kt","parameterCategory":2,"dx":1,"dy":1,"la1":30.253999710083008,"la2":30.299108505249023,"lo1":-89.0895004272461,"lo2":-89.04439544677734,"nx":28,"ny":28,"refTime":"2022-09-21T09:00:00:Z","depth":0,"parameterNumber":1,"parameterNumberName":"U-component_of_WINDS"},"data":[1.8385,1.8586,1.8643,1.8899,1.8995,1.918,1.9266,1.9382,1.9491,1.9721,1.9865,1.9947,2.0081,2.0269,2.0429,2.0463,2.0526,2.0552,2.0587,2.0413,2.0393,2.0373,2.0327,2.0566,2.0566,2.0758,2.076,2.0761,1.8245,1.834,1.8493,1.8681,1.8813,1.882,1.8972,1.9082,1.925,1.9386,1.9532,1.9741,1.9916,2.0045,2.0224,2.0321,2.0337,2.0365,2.0358,2.0379,2.0195,2.0145,2.0349,2.0349,2.0349,2.0349,2.0349,2.0349,1.8004,1.8123,1.827,1.8438,1.8549,1.8675,1.88,1.8897,1.905,1.9242,1.9285,1.9478,1.9628,1.9877,1.9976,2.0129,2.0109,2.0161,2.0173,2.0184,2.0186,1.9893,2.0163,2.0163,2.0163,2.0163,2.0162,0,1.7845,1.7885,1.8038,1.8206,1.8333,1.8471,1.8608,1.8688,1.8798,1.8921,1.9104,1.9221,1.9452,1.9633,1.9816,1.9911,1.9936,1.9947,1.9982,1.9961,1.9917,1.9939,1.9633,1.9939,1.9938,1.9936,1.9936,1.9935,1.7604,1.7738,1.7923,1.8021,1.8111,1.8272,1.8379,1.8467,1.8578,1.8763,1.8866,1.9049,1.9199,1.9488,1.9605,1.9781,1.9795,1.9904,1.9822,1.9794,1.9794,1.9783,1.9796,1.9917,1.992,1.9921,1.9923,0,1.7462,1.7559,1.7786,1.7958,1.8005,1.8141,1.8289,1.8415,1.8498,1.8682,1.8731,1.8863,1.9044,1.9145,1.9376,1.9423,1.9651,1.9662,1.9597,1.9604,1.9709,1.9697,2.0043,2.0091,1.9848,1.985,1.9852,0,1.7294,1.7468,1.7601,1.7728,1.7924,1.8008,1.82,1.8291,1.8423,1.8569,1.8613,1.875,1.8859,1.9012,1.9083,1.9288,1.9333,1.9381,1.9397,1.9376,1.9369,1.9438,1.9425,1.9433,1.9432,1.943,1.9429,0,1.706,1.7338,1.7545,1.7624,1.7827,1.7923,1.8013,1.8162,1.8269,1.8425,1.8495,1.8673,1.877,1.8906,1.8995,1.8935,1.925,1.9186,1.9299,1.9297,1.9364,1.9358,1.9638,1.9426,1.9426,1.9425,1.9424,0,1.6939,1.7091,1.7378,1.7547,1.7617,1.7756,1.7932,1.8075,1.823,1.8283,1.8408,1.845,1.8639,1.8567,1.883,1.8725,1.8819,1.8884,1.8894,1.8916,1.8833,1.8975,1.9233,1.9263,1.8936,1.8932,1.8929,0,1.6642,1.6959,1.7033,1.7306,1.7466,1.7501,1.7658,1.7794,1.7877,1.8027,1.8121,1.8294,1.8262,1.8331,1.8447,1.8552,1.8688,1.8537,1.8755,1.8761,1.8708,1.8947,1.8959,1.9165,1.8878,1.8884,1.8887,0,1.6425,1.6669,1.6713,1.6806,1.7,1.7136,1.7316,1.7504,1.7599,1.7751,1.7904,1.8152,1.8137,1.8251,1.8306,1.8422,1.8599,1.8392,1.8398,1.8424,1.8863,1.8872,1.8906,1.861,1.8616,1.8622,1.8847,0,1.6214,1.6387,1.651,1.6718,1.6839,1.7018,1.7123,1.7237,1.7275,1.7359,1.7589,1.7734,1.7931,1.7999,1.804,1.8274,1.8251,1.8235,1.8174,1.833,1.8408,1.8439,1.8049,1.8048,1.8047,1.8046,0,0,1.5906,1.6156,1.6233,1.641,1.6517,1.6553,1.6734,1.6844,1.7066,1.7139,1.7105,1.7475,1.7596,1.7865,1.7922,1.8003,1.8055,1.7998,1.8255,1.8278,1.83,1.838,1.8411,1.8044,1.8044,1.8044,1.8043,0,1.585,1.5966,1.6143,1.6259,1.6433,1.6514,1.6556,1.6737,1.68,1.7027,1.7057,1.7209,1.7506,1.7627,1.7728,1.7967,1.7983,1.802,1.811,1.8242,1.8266,1.8288,1.8371,1.84,1.8041,1.8041,1.8041,0,1.5653,1.5784,1.5881,1.6126,1.6242,1.6409,1.6368,1.6548,1.6673,1.671,1.6935,1.7031,1.7205,1.7447,1.756,1.7533,1.791,1.7813,1.7823,1.7838,1.7972,1.8,1.8026,1.7687,1.7685,1.7684,0,0,1.5591,1.5753,1.5923,1.6123,1.6193,1.6317,1.6418,1.6466,1.6619,1.6681,1.6805,1.6955,1.7128,1.724,1.7409,1.766,1.7703,1.7765,1.7782,1.7795,1.7817,1.7954,1.7983,1.7677,1.7677,1.7677,0,0,1.5563,1.5766,1.5776,1.6021,1.6163,1.6347,1.6466,1.6485,1.6647,1.6639,1.6735,1.6779,1.7008,1.7103,1.7003,1.7389,1.7326,1.7353,1.7319,1.7342,1.7358,1.7331,1.6986,0,0,0,0,0,1.556,1.574,1.5747,1.5804,1.6118,1.6342,1.6383,1.6463,1.6414,1.6507,1.6613,1.6624,1.7068,1.6981,1.7039,1.715,1.7594,1.7609,1.7623,1.7639,1.7661,1.768,0,0,0,0,0,0,1.5584,1.5653,1.5743,1.5932,1.6003,1.6336,1.6271,1.6298,1.6407,1.6405,1.6603,1.6631,1.6706,1.6958,1.7008,1.7112,1.6969,1.76,1.7612,1.7624,1.7646,1.7665,1.7681,0,0,0,0,0,1.5602,1.5658,1.614,1.593,1.5992,1.6141,1.6265,1.6287,1.6373,1.6539,1.6567,1.6423,1.6707,1.6755,1.6988,1.7087,1.6934,1.6953,1.7608,1.7618,1.7627,1.7655,0,0,0,0,0,0,1.5616,1.5681,1.6154,1.6176,1.5868,1.6124,1.6167,1.6277,1.6503,1.6531,1.6363,1.6359,1.671,1.6747,1.6784,1.7073,1.6906,1.6925,1.6937,1.7615,1.7623,1.763,0,0,0,0,0,0,1.5652,1.57,1.6166,1.6083,1.6096,1.6108,1.6146,1.6358,1.6505,1.6315,1.6318,1.6359,1.6656,1.6742,1.6771,1.7098,1.6885,1.6903,1.6915,1.6923,1.7622,1.7628,0,0,0,0,0,0,1.5673,1.5715,1.6078,1.6088,1.6099,1.6353,1.6297,1.6616,1.6429,1.6304,1.6415,1.6408,1.6651,1.6682,1.6761,1.7076,1.7092,1.6885,1.6898,1.6906,1.6912,0,0,0,0,0,0,0,1.5691,1.5396,1.6023,1.6092,1.6102,1.638,1.6386,1.6392,1.6427,1.6422,1.6416,1.6411,1.6782,1.6802,1.6822,1.7059,0,0,1.6884,1.6892,0,0,0,0,0,0,0,0,1.538,1.5392,1.6024,1.6028,1.6033,1.6381,1.6386,1.6391,1.6426,1.6422,1.6417,1.6413,1.6787,1.6803,1.682,0,0,0,0,0,0,0,0,0,0,0,0,0,0,0,1.6024,1.6028,0,1.6381,1.6385,1.639,1.6426,1.6422,1.6418,1.6415,1.6792,1.6805,1.6818,0,0,0,0,0,0,0,0,0,0,0,0,0,0,0,0,0,0,0,0,0,0,0,0,0,0,0,0,0,0,0,0,0,0,0,0,0,0,0,0,0,0,0,0,0,0,0,0,0,0,0,0,0,0,0,0,0,0,0,0,0,0,0,0,0,0,0,0,0]}],[{"header":{"parameterUnit":"kt","parameterCategory":2,"dx":1,"dy":1,"la1":30.253999710083008,"la2":30.299108505249023,"lo1":-89.0895004272461,"lo2":-89.04439544677734,"nx":28,"ny":28,"refTime":"2022-09-21T09:00:00:Z","depth":0,"parameterNumber":2,"parameterNumberName":"V-component_of_WINDS"},"data":[5.178,5.1865,5.1853,5.1944,5.1949,5.2008,5.2025,5.2046,5.2061,5.213,5.2168,5.2167,5.2177,5.222,5.226,5.2258,5.2272,5.2308,5.2298,5.2152,5.2131,5.2111,5.2086,5.2313,5.2314,5.2448,5.2449,5.245,5.166,5.1665,5.1713,5.175,5.1789,5.1746,5.1773,5.1807,5.1863,5.1884,5.1923,5.1984,5.2032,5.2032,5.2076,5.2113,5.2094,5.2125,5.2118,5.2118,5.1964,5.1939,5.2138,5.2138,5.2138,5.2138,5.2138,5.2138,5.1436,5.149,5.1506,5.1558,5.1575,5.1601,5.1649,5.1647,5.1694,5.174,5.1722,5.1786,5.1805,5.1856,5.1872,5.1919,5.1884,5.1914,5.192,5.1925,5.193,5.172,5.1929,5.1928,5.1928,5.1927,5.1927,0,5.1267,5.1253,5.1301,5.1343,5.1381,5.1415,5.1444,5.1475,5.1448,5.149,5.1547,5.1579,5.1642,5.1694,5.1736,5.1747,5.1705,5.1705,5.1723,5.1726,5.1722,5.1715,5.1454,5.1698,5.1696,5.1694,5.1693,5.1692,5.1031,5.1101,5.1117,5.1151,5.1165,5.1224,5.1256,5.1228,5.1263,5.1296,5.1346,5.1401,5.1442,5.1539,5.1537,5.1585,5.1565,5.1656,5.1572,5.1572,5.1554,5.1547,5.1549,5.1671,5.1674,5.1676,5.1678,0,5.0897,5.0883,5.0988,5.1,5.1004,5.1078,5.1086,5.1142,5.1136,5.1211,5.1227,5.1218,5.1277,5.1262,5.133,5.1318,5.1429,5.1413,5.1417,5.141,5.1484,5.1474,5.1746,5.1776,5.155,5.1552,5.1554,0,5.0687,5.0782,5.0753,5.0816,5.0917,5.0887,5.0988,5.0993,5.1013,5.1072,5.1027,5.1083,5.1056,5.111,5.1095,5.1185,5.1201,5.1195,5.1188,5.1194,5.1193,5.1207,5.1192,5.1184,5.1183,5.1181,5.118,0,5.0472,5.0575,5.0676,5.0697,5.0722,5.077,5.0783,5.0807,5.0841,5.0884,5.0904,5.0958,5.0986,5.1026,5.1005,5.0947,5.1119,5.1035,5.1111,5.1111,5.1146,5.1142,5.1393,5.1179,5.1178,5.1178,5.1177,0,5.0299,5.0344,5.0499,5.0515,5.0543,5.0615,5.0661,5.072,5.0749,5.0744,5.0779,5.0745,5.0831,5.0746,5.0859,5.0787,5.0816,5.082,5.0826,5.0826,5.0729,5.0861,5.1109,5.1129,5.0832,5.0829,5.0827,0,5.005,5.0207,5.0182,5.0333,5.0401,5.034,5.0418,5.0448,5.0448,5.0505,5.0506,5.0574,5.0509,5.0528,5.0587,5.0589,5.0684,5.0578,5.065,5.0653,5.0633,5.0864,5.09,5.1058,5.0791,5.0794,5.0797,0,4.9856,4.989,4.992,4.9938,4.9977,5.0038,5.013,5.0191,5.0229,5.0274,5.0344,5.0447,5.0396,5.0432,5.0413,5.0475,5.0619,5.0415,5.0415,5.0444,5.0775,5.0806,5.0834,5.0591,5.0596,5.0599,5.0768,0,4.9576,4.9658,4.974,4.9796,4.9842,4.9941,4.9926,4.9976,4.995,4.9949,5.006,5.0088,5.0153,5.0185,5.0165,5.0316,5.0286,5.0237,5.0148,5.0304,5.0357,5.0381,5.0067,5.0065,5.0063,5.0061,0,0,4.9337,4.9454,4.943,4.952,4.9555,4.9494,4.9599,4.9629,4.9692,4.9716,4.9668,4.9814,4.984,4.9976,5.0024,5.0055,5.0077,5.0027,5.0232,5.0251,5.0269,5.0328,5.0352,5.0057,5.0056,5.0055,5.0055,0,4.923,4.9261,4.9368,4.9397,4.9439,4.9435,4.946,4.9493,4.9497,4.9612,4.9558,4.9625,4.975,4.9778,4.9809,5.0011,4.9965,5.0034,5.0141,5.0211,5.0233,5.0252,5.0314,5.0338,5.0049,5.005,5.005,0,4.9028,4.9052,4.9105,4.9193,4.9221,4.93,4.9203,4.9294,4.935,4.9282,4.9395,4.941,4.9452,4.9588,4.965,4.9607,4.9862,4.9786,4.9799,4.9804,4.987,4.9897,4.9921,4.9606,4.9604,4.9603,0,0,4.8938,4.9018,4.9037,4.917,4.9191,4.9188,4.9231,4.921,4.9251,4.9268,4.9285,4.9325,4.9394,4.9442,4.9508,4.9663,4.9664,4.9731,4.9752,4.9769,4.9783,4.9854,4.9881,4.9597,4.9597,4.9597,0,0,4.8895,4.8922,4.889,4.9043,4.9083,4.9111,4.9191,4.9153,4.9212,4.9199,4.9171,4.9181,4.931,4.9328,4.9251,4.9475,4.9389,4.9408,4.9458,4.9484,4.9505,4.9495,4.9156,0,0,0,0,0,4.878,4.8917,4.8889,4.8913,4.9027,4.9127,4.9141,4.9121,4.9057,4.912,4.9128,4.908,4.9278,4.921,4.9234,4.9318,4.9523,4.9536,4.9548,4.9649,4.9677,4.97,0,0,0,0,0,0,4.8789,4.8819,4.8885,4.8919,4.8945,4.9122,4.9009,4.9007,4.9049,4.9038,4.908,4.9081,4.9066,4.9197,4.9219,4.9299,4.9149,4.9528,4.9539,4.9549,4.9659,4.9682,4.9701,0,0,0,0,0,4.8796,4.882,4.901,4.8917,4.8939,4.8944,4.9003,4.9001,4.9034,4.9048,4.9048,4.9014,4.9069,4.9086,4.921,4.9289,4.9133,4.9142,4.9535,4.9544,4.9552,4.967,0,0,0,0,0,0,4.8802,4.8818,4.9014,4.902,4.8865,4.8934,4.8944,4.8996,4.9041,4.9042,4.8981,4.8972,4.9073,4.9085,4.9099,4.9286,4.9121,4.9129,4.9134,4.9542,4.9549,4.9555,0,0,0,0,0,0,4.8805,4.8824,4.9017,4.8952,4.895,4.8924,4.8934,4.9038,4.9042,4.897,4.8964,4.8976,4.9053,4.9086,4.9096,4.926,4.9111,4.9119,4.9125,4.9128,4.9547,4.9553,0,0,0,0,0,0,4.8813,4.8829,4.895,4.8949,4.8947,4.9011,4.9016,4.9135,4.8986,4.8969,4.8972,4.8966,4.9055,4.9064,4.9094,4.9254,4.9259,4.9111,4.9117,4.9121,4.9123,0,0,0,0,0,0,0,4.8819,4.8718,4.8979,4.8946,4.8944,4.9074,4.9076,4.9077,4.8985,4.8979,4.8973,4.8968,4.9065,4.9074,4.9083,4.925,0,0,4.9111,4.9115,0,0,0,0,0,0,0,0,4.871,4.8716,4.8979,4.8981,4.8982,4.9074,4.9076,4.9077,4.8984,4.8979,4.8975,4.897,4.9068,4.9075,4.9082,0,0,0,0,0,0,0,0,0,0,0,0,0,0,0,4.8979,4.898,0,4.9074,4.9075,4.9077,4.8983,4.8979,4.8976,4.8972,4.907,4.9075,4.9081,0,0,0,0,0,0,0,0,0,0,0,0,0,0,0,0,0,0,0,0,0,0,0,0,0,0,0,0,0,0,0,0,0,0,0,0,0,0,0,0,0,0,0,0,0,0,0,0,0,0,0,0,0,0,0,0,0,0,0,0,0,0,0,0,0,0,0,0,0]}]]]